Weather History for Toledo Metcalf, OH

Change the Weather History Date:

Thursday, March 6, 2014

  Actual Average (KTOL) Record (KTOL)
Temperature  
Mean Temperature 19 °F 34 °F  
Max Temperature 24 °F 43 °F 73 °F (1973)
Min Temperature 14 °F 25 °F 2 °F (1901)
Degree Days  
Heating Degree Days 46 31  
Month to date heating degree days 193  
Since 1 July heating degree days 4769  
Cooling Degree Days 0 0  
Month to date cooling degree days 0  
Year to date cooling degree days 0  
Moisture  
Dew Point 11 °F    
Average Humidity 72    
Maximum Humidity 84    
Minimum Humidity 62    
Precipitation  
Precipitation 0.00 in 0.07 in 1.21 in (1956)
Month to date precipitation 0.45  
Year to date precipitation 4.57  
Snow  
Snow 0.00 in 0.20 in - ()
Month to date snowfall 1.4  
Since 1 July snowfall 31.9  
Snow Depth -    
Sea Level Pressure  
Sea Level Pressure 30.37 in    
Wind  
Wind Speed 8 mph (NE)    
Max Wind Speed 12 mph    
Max Gust Speed -    
Visibility 10 miles    
Events      
T = Trace of Precipitation, MM = Missing Value Source: NWS Daily Summary

Daily Weather History Graph

Daily Weather History Graph

Search for Another Location

Airport:

Trip Planner

Search our weather history database for the weather conditions in past years. The results will help you decide how hot, cold, wet, or windy it might be!

Date:

Astronomy

Mar. 06, 2014 Rise Set
Actual Time 7:00 AM EST 6:30 PM EST
Civil Twilight 6:32 AM EST 6:58 PM EST
Nautical Twilight 6:00 AM EST 7:30 PM EST
Astronomical Twilight 5:28 AM EST 8:02 PM EST
Moon 10:03 AM EST (3/6) No Moon Set
Length of Visible Light 12h 25m
Length of Day
11h 29m
Waxing Crescent, 32% of the Moon is Illuminated
Mar 6
Waxing Crescent
Mar 8
First Quarter
Mar 16
Full
Mar 23
Last Quarter
Mar 30
New

Hourly Weather History & Observations

Time (EST) Temp. Windchill Dew Point Humidity Pressure Visibility Wind Dir Wind Speed Gust Speed Precip Events Conditions
12:53 AM 14.0 °F 3.9 °F 7.0 °F 74% 30.51 in 10.0 mi NE 6.9 mph - N/A   Clear
1:53 AM 14.0 °F 5.1 °F 8.1 °F 77% 30.51 in 10.0 mi NE 5.8 mph - N/A   Clear
2:53 AM 16.0 °F 6.3 °F 9.0 °F 74% 30.49 in 10.0 mi NE 6.9 mph - N/A   Clear
3:53 AM 16.0 °F 6.3 °F 9.0 °F 74% 30.47 in 10.0 mi NE 6.9 mph - N/A   Scattered Clouds
4:53 AM 16.0 °F 2.9 °F 8.1 °F 71% 30.46 in 10.0 mi NE 11.5 mph - N/A   Partly Cloudy
5:53 AM 16.0 °F 2.9 °F 8.1 °F 71% 30.47 in 10.0 mi ENE 11.5 mph - N/A   Clear
6:53 AM 16.0 °F 3.6 °F 8.1 °F 71% 30.47 in 10.0 mi ENE 10.4 mph - N/A   Scattered Clouds
7:53 AM 16.0 °F 4.4 °F 8.1 °F 71% 30.46 in 10.0 mi ENE 9.2 mph - N/A   Partly Cloudy
8:53 AM 17.1 °F 5.0 °F 8.1 °F 68% 30.45 in 10.0 mi ENE 10.4 mph - N/A   Partly Cloudy
9:53 AM 18.0 °F 6.1 °F 9.0 °F 68% 30.43 in 10.0 mi East 10.4 mph - N/A   Clear
10:53 AM 19.0 °F 6.8 °F 10.0 °F 68% 30.42 in 10.0 mi ENE 11.5 mph - N/A   Clear
11:53 AM 21.0 °F 10.6 °F 10.9 °F 65% 30.40 in 10.0 mi ENE 9.2 mph - N/A   Clear
12:53 PM 21.9 °F 11.0 °F 12.0 °F 66% 30.38 in 10.0 mi ENE 10.4 mph - N/A   Clear
1:53 PM 23.0 °F 11.7 °F 12.0 °F 63% 30.35 in 10.0 mi NE 11.5 mph - N/A   Clear
2:53 PM 24.1 °F 13.7 °F 12.9 °F 62% 30.32 in 10.0 mi ENE 10.4 mph - N/A   Clear
3:53 PM 24.1 °F 14.4 °F 14.0 °F 65% 30.32 in 10.0 mi NE 9.2 mph - N/A   Clear
4:53 PM 24.1 °F 13.7 °F 14.0 °F 65% 30.30 in 10.0 mi ENE 10.4 mph - N/A   Clear
5:53 PM 23.0 °F 13.9 °F 15.1 °F 72% 30.28 in 10.0 mi ENE 8.1 mph - N/A   Clear
6:53 PM 21.9 °F 15.7 °F 15.1 °F 75% 30.28 in 10.0 mi NE 4.6 mph - N/A   Clear
7:53 PM 21.0 °F 12.4 °F 15.1 °F 78% 30.26 in 10.0 mi NE 6.9 mph - N/A   Clear
8:53 PM 19.9 °F 12.1 °F 14.0 °F 78% 30.23 in 10.0 mi NE 5.8 mph - N/A   Clear
9:53 PM 18.0 °F 11.1 °F 12.9 °F 81% 30.23 in 10.0 mi North 4.6 mph - N/A   Clear
10:53 PM 17.1 °F 8.7 °F 12.9 °F 84% 30.22 in 10.0 mi North 5.8 mph - N/A   Clear
11:53 PM 18.0 °F 12.7 °F 12.9 °F 81% 30.20 in 10.0 mi North 3.5 mph - N/A   Clear